Location: Stonelick Lake State Park
(39.2170°N, 84.0850°W)
Time: 22:15:39
(UTC-04:00)

Amateur Radio Satellites - All Passes

Search period start: 22 October 2014 21:45
Search period end: 23 October 2014 21:45
Location: Stonelick Lake State Park, 39.2170°N, 84.0850°W

Satellite Date Start Highest point End Downlink Frequencies (MHz)
Time Altitude Azimuth
SO-50 22 Oct 21:47:29 21:50:18 15° 41° (NE) 21:53:08 436.795 FM
Oscar 11 22 Oct 21:50:29 21:54:10 28° 70° (ENE) 21:57:52 145.825 FM, Beacon 2401.500 USB
KITSAT 1 22 Oct 21:56:19 22:03:59 44° 51° (NE) 22:11:36 435.175 FM
ZACube-1 22 Oct 22:32:31 22:36:43 35° 71° (ENE) 22:40:52 437.345 MHz
HO-68 22 Oct 22:35:33 22:42:13 41° 261° (W) 22:48:57 435.675 MHz FM
UKube-1 22 Oct 22:42:06 22:46:24 65° 258° (WSW) 22:50:45 145.840 MHz, 145.915 MHz
RS-15 22 Oct 22:48:47 22:59:12 50° 111° (ESE) 23:09:29 29.354 - 29.394 USB, Beacon 29.352 USB
FUNcube-1 22 Oct 23:17:22 23:21:58 75° 258° (WSW) 23:26:32 145.950 - 145.970 MHz USB
UOSAT-12 22 Oct 23:24:22 23:26:32 13° 39° (NE) 23:28:42 437.025 FM, 437.400 FM
SO-50 22 Oct 23:26:37 23:31:29 85° 239° (WSW) 23:36:23 436.795 FM
Oscar 11 22 Oct 23:26:48 23:30:18 24° 265° (W) 23:33:49 145.825 FM, Beacon 2401.500 USB
KITSAT 1 22 Oct 23:51:52 23:59:19 43° 250° (WSW) 00:06:45 435.175 FM
ZACube-1 23 Oct 00:09:40 00:13:09 21° 266° (W) 00:16:38 437.345 MHz
MaSat-1 23 Oct 00:30:41 00:34:31 32° 110° (ESE) 00:38:04 437.345 MHz
RS-15 23 Oct 01:01:05 01:11:33 48° 313° (NW) 01:22:04 29.354 - 29.394 USB, Beacon 29.352 USB
UOSAT-12 23 Oct 01:02:42 01:07:27 83° 58° (ENE) 01:12:05 437.025 FM, 437.400 FM
MaSat-1 23 Oct 02:07:06 02:10:14 20° 302° (WNW) 02:13:10 437.345 MHz
Oscar 19 23 Oct 02:20:17 02:24:24 24° 95° (E) 02:28:29 437.125 CW, 437.150 USB
AO-27 23 Oct 02:34:09 02:36:26 13° 90° (E) 02:38:41 436.795 MHz FM
Oscar 16 23 Oct 03:04:57 03:10:04 68° 102° (ESE) 03:15:09 437.025 USB, Beacon 2401.1428
JAS-1B 23 Oct 03:05:50 03:12:24 58° 102° (ESE) 03:20:13 435.800 - 435.900 CW/SSB
AO-Echo 23 Oct 03:17:04 03:22:12 47° 99° (E) 03:27:17 ?
RS-15 23 Oct 03:20:21 03:27:37 19° 344° (NNW) 03:34:59 29.354 - 29.394 USB, Beacon 29.352 USB
Uribyol 2 23 Oct 03:20:52 03:25:45 40° 98° (E) 03:30:35 436.500 FM
ITAMSAT 1 23 Oct 03:26:18 03:31:15 42° 99° (E) 03:36:10 435.822 SSB
Gurwin Techsat 1B 23 Oct 03:34:07 03:38:33 26° 95° (E) 03:42:57 435.225 FM
TMSAT-1 23 Oct 03:46:47 03:51:09 25° 95° (E) 03:55:29 436.925 FM
Oscar 19 23 Oct 03:59:07 04:03:49 37° 290° (WNW) 04:08:29 437.125 CW, 437.150 USB
AO-27 23 Oct 04:11:12 04:16:26 72° 286° (WNW) 04:21:37 436.795 MHz FM
Sapphire 23 Oct 04:42:27 04:47:30 42° 111° (ESE) 04:52:35 437.095 MHz 1200 baud AX-25 AFSK
Oscar 16 23 Oct 04:46:05 04:48:49 15° 298° (WNW) 04:51:32 437.025 USB, Beacon 2401.1428
AO-Echo 23 Oct 04:56:36 05:00:36 22° 295° (WNW) 05:04:36 ?
JAS-1B 23 Oct 04:57:34 05:02:44 25° 295° (WNW) 05:08:36 435.800 - 435.900 CW/SSB
Uribyol 2 23 Oct 05:00:50 05:04:59 25° 294° (WNW) 05:09:06 436.500 FM
Uosat F 23 Oct 05:01:22 05:04:45 18° 93° (E) 05:08:06 435.120 FM
PCSat 23 Oct 05:04:50 05:10:13 73° 116° (ESE) 05:15:38 145.825 MHz
ITAMSAT 1 23 Oct 05:06:24 05:10:28 23° 295° (WNW) 05:14:31 435.822 SSB
Gurwin Techsat 1B 23 Oct 05:13:43 05:18:33 37° 291° (WNW) 05:23:23 435.225 FM
JAS-2 23 Oct 05:19:54 05:22:21 12° 85° (E) 05:24:47 435.800 - 435.900 CW/SSB, 435.910 FM
TMSAT-1 23 Oct 05:26:16 05:31:08 38° 291° (WNW) 05:35:59 436.925 FM
AO-7 23 Oct 05:26:32 05:34:29 47° 101° (E) 05:42:23 29.400 - 29.500 MHz
RS-15 23 Oct 05:37:59 05:45:54 21° 22° (NNE) 05:53:58 29.354 - 29.394 USB, Beacon 29.352 USB
OPAL 23 Oct 05:38:51 05:43:57 64° 71° (ENE) 05:49:00 ?
Sapphire 23 Oct 06:26:28 06:31:03 28° 309° (NW) 06:35:41 437.095 MHz 1200 baud AX-25 AFSK
Uosat F 23 Oct 06:38:54 06:43:47 50° 289° (WNW) 06:48:38 435.120 FM
PCSat 23 Oct 06:50:33 06:54:12 18° 314° (NW) 06:57:53 145.825 MHz
JAS-2 23 Oct 07:00:42 07:08:28 69° 101° (ESE) 07:16:14 435.800 - 435.900 CW/SSB, 435.910 FM
AO-7 23 Oct 07:19:34 07:27:04 40° 299° (WNW) 07:34:35 29.400 - 29.500 MHz
STRAND 1 23 Oct 07:20:11 07:25:12 59° 73° (ENE) 07:30:16 ?
OPAL 23 Oct 07:20:25 07:23:12 15° 266° (W) 07:25:58 ?
Hamsat 23 Oct 07:30:05 07:34:17 90° 284° (WNW) 07:38:30 145.90 MHz
RS-15 23 Oct 07:50:28 08:01:26 57° 51° (NE) 08:12:49 29.354 - 29.394 USB, Beacon 29.352 USB
Saudisat 1A 23 Oct 08:26:41 08:30:47 41° 116° (ESE) 08:34:56 436.775 MHz
SO-67 23 Oct 08:28:55 08:32:18 52° 100° (E) 08:35:39 435.3500 MHz FM
JAS-2 23 Oct 08:46:44 08:52:48 26° 298° (WNW) 08:58:58 435.800 - 435.900 CW/SSB, 435.910 FM
STRAND 1 23 Oct 09:01:47 09:04:45 15° 268° (W) 09:07:45 ?
RS-15 23 Oct 10:03:16 10:13:28 42° 252° (WSW) 10:24:06 29.354 - 29.394 USB, Beacon 29.352 USB
HO-68 23 Oct 10:03:56 10:10:41 41° 99° (E) 10:17:22 435.675 MHz FM
Saudisat 1A 23 Oct 10:07:04 10:10:30 22° 313° (NW) 10:13:58 436.775 MHz
PANSAT 23 Oct 10:15:43 10:18:05 16° 176° (S) 10:20:27 not established
MaSat-1 23 Oct 10:18:11 10:20:36 32° 61° (ENE) 10:22:50 437.345 MHz
UKube-1 23 Oct 10:31:57 10:35:24 23° 95° (E) 10:38:50 145.840 MHz, 145.915 MHz
FUNcube-1 23 Oct 11:08:32 11:11:50 22° 94° (E) 11:15:03 145.950 - 145.970 MHz USB
Oscar 11 23 Oct 11:14:25 11:18:43 65° 101° (E) 11:22:59 145.825 FM, Beacon 2401.500 USB
HO-68 23 Oct 11:51:48 11:58:15 37° 296° (WNW) 12:04:41 435.675 MHz FM
PANSAT 23 Oct 11:55:27 11:57:34 14° 189° (S) 11:59:41 not established
ZACube-1 23 Oct 11:58:51 12:03:09 86° 104° (ESE) 12:07:20 437.345 MHz
UKube-1 23 Oct 12:07:46 12:11:35 30° 291° (WNW) 12:15:23 145.840 MHz, 145.915 MHz
KITSAT 1 23 Oct 12:24:03 12:31:00 33° 107° (ESE) 12:37:57 435.175 FM
FUNcube-1 23 Oct 12:44:32 12:48:13 29° 290° (WNW) 12:51:49 145.950 - 145.970 MHz USB
Oscar 16 23 Oct 12:46:06 12:47:24 11° 59° (ENE) 12:48:41 437.025 USB, Beacon 2401.1428
Oscar 11 23 Oct 12:53:03 12:54:19 11° 297° (WNW) 12:55:36 145.825 FM, Beacon 2401.500 USB
Sapphire 23 Oct 13:31:31 13:36:13 29° 52° (NE) 13:40:53 437.095 MHz 1200 baud AX-25 AFSK
Oscar 19 23 Oct 13:36:04 13:40:36 32° 68° (ENE) 13:45:08 437.125 CW, 437.150 USB
SO-50 23 Oct 13:40:44 13:44:54 39° 115° (ESE) 13:49:10 436.795 FM
AO-27 23 Oct 13:50:49 13:54:26 19° 63° (ENE) 13:58:03 436.795 MHz FM
JAS-1B 23 Oct 13:51:56 13:57:28 40° 69° (ENE) 14:02:43 435.800 - 435.900 CW/SSB
PCSat 23 Oct 13:53:57 13:59:11 46° 56° (ENE) 14:04:22 145.825 MHz
ISS 23 Oct 13:58:30 14:01:47 62° 139° (SE) 14:05:05 145.800 FM
Oscar 10/S400 23 Oct 14:09:20 14:27:52 38° 153° (SSE) 14:48:18 145.825 - 145.975 CW/USB, Beacon 145.810 USB
KITSAT 1 23 Oct 14:18:08 14:26:00 55° 306° (NW) 14:33:56 435.175 FM
Oscar 16 23 Oct 14:20:46 14:25:57 88° 76° (ENE) 14:31:08 437.025 USB, Beacon 2401.1428
AO-Echo 23 Oct 14:29:02 14:33:43 51° 72° (ENE) 14:38:35 ?
Uribyol 2 23 Oct 14:37:34 14:42:38 54° 72° (ENE) 14:47:44 436.500 FM
AO-7 23 Oct 14:38:21 14:41:11 12° 46° (NE) 14:44:02 29.400 - 29.500 MHz
ITAMSAT 1 23 Oct 14:43:10 14:48:15 58° 72° (ENE) 14:53:23 435.822 SSB
Gurwin Techsat 1B 23 Oct 14:54:05 14:58:56 38° 69° (ENE) 15:03:48 435.225 FM
TMSAT-1 23 Oct 15:06:24 15:11:12 36° 69° (ENE) 15:16:01 436.925 FM
UOSAT-12 23 Oct 15:13:08 15:17:12 32° 113° (ESE) 15:21:21 437.025 FM, 437.400 FM
Sapphire 23 Oct 15:14:41 15:19:44 40° 249° (WSW) 15:24:45 437.095 MHz 1200 baud AX-25 AFSK
Oscar 19 23 Oct 15:15:28 15:19:54 29° 264° (W) 15:24:20 437.125 CW, 437.150 USB
SO-50 23 Oct 15:21:54 15:25:35 24° 313° (NW) 15:29:21 436.795 FM
AO-27 23 Oct 15:28:27 15:33:30 52° 260° (W) 15:38:37 436.795 MHz FM
ISS 23 Oct 15:36:09 15:38:44 20° 336° (NNW) 15:41:19 145.800 FM
PCSat 23 Oct 15:38:03 15:42:16 23° 253° (WSW) 15:46:27 145.825 MHz
JAS-1B 23 Oct 15:43:24 15:48:18 25° 264° (W) 15:52:57 435.800 - 435.900 CW/SSB
AO-Echo 23 Oct 16:09:48 16:12:49 16° 269° (W) 16:15:55 ?
Uosat F 23 Oct 16:13:36 16:17:29 23° 65° (ENE) 16:21:23 435.120 FM
KITSAT 1 23 Oct 16:18:55 16:23:27 16° 330° (NNW) 16:28:00 435.175 FM
Uribyol 2 23 Oct 16:19:02 16:22:25 17° 268° (W) 16:25:49 436.500 FM
AO-7 23 Oct 16:24:11 16:32:12 57° 66° (ENE) 16:40:14 29.400 - 29.500 MHz
ITAMSAT 1 23 Oct 16:24:55 16:28:05 16° 268° (W) 16:31:17 435.822 SSB
Gurwin Techsat 1B 23 Oct 16:34:36 16:38:57 26° 265° (W) 16:43:20 435.225 FM
TMSAT-1 23 Oct 16:46:43 16:51:09 27° 265° (W) 16:55:36 436.925 FM
UOSAT-12 23 Oct 16:53:13 16:57:19 30° 311° (NW) 17:01:29 437.025 FM, 437.400 FM
Saudisat 1A 23 Oct 16:54:24 16:58:10 26° 49° (NE) 17:01:54 436.775 MHz
JAS-2 23 Oct 17:13:11 17:17:53 25° 61° (ENE) 17:23:02 435.800 - 435.900 CW/SSB, 435.910 FM
ISS 23 Oct 17:16:14 17:16:27 10° 356° (N) 17:16:40 145.800 FM
OPAL 23 Oct 17:51:11 17:54:22 17° 95° (E) 17:57:32 ?
Uosat F 23 Oct 17:51:19 17:56:00 40° 261° (W) 18:00:44 435.120 FM
AO-7 23 Oct 18:18:16 18:25:18 31° 264° (W) 18:32:22 29.400 - 29.500 MHz
Hamsat 23 Oct 18:22:07 18:26:14 54° 74° (ENE) 18:30:20 145.90 MHz
Saudisat 1A 23 Oct 18:33:47 18:37:44 33° 246° (WSW) 18:41:41 436.775 MHz
ISS 23 Oct 18:52:25 18:54:19 14° 17° (NNE) 18:56:14 145.800 FM
JAS-2 23 Oct 18:56:51 19:02:27 51° 262° (W) 19:08:49 435.800 - 435.900 CW/SSB, 435.910 FM
SO-67 23 Oct 19:01:40 19:03:42 15° 69° (ENE) 19:05:44 435.3500 MHz FM
OPAL 23 Oct 19:28:43 19:33:32 51° 290° (WNW) 19:38:17 ?
STRAND 1 23 Oct 19:32:42 19:36:37 22° 94° (E) 19:40:30 ?
Hamsat 23 Oct 20:01:06 20:02:29 11° 269° (W) 20:03:51 145.90 MHz
KITSAT 1 23 Oct 20:18:03 20:23:06 17° 33° (NNE) 20:28:08 435.175 FM
ISS 23 Oct 20:28:17 20:31:35 58° 35° (NE) 20:34:53 145.800 FM
HO-68 23 Oct 20:32:02 20:37:57 29° 61° (ENE) 20:43:52 435.675 MHz FM
SO-67 23 Oct 20:33:28 20:36:26 27° 264° (W) 20:39:25 435.3500 MHz FM
STRAND 1 23 Oct 21:11:06 21:15:57 42° 290° (WNW) 21:20:46 ?
UKube-1 23 Oct 21:26:57 21:29:57 18° 66° (ENE) 21:32:56 145.840 MHz, 145.915 MHz
